Location: Newark
(46.7000°N, 60.6000°W)
Time: 06:10:42
(UTC+00:00)

Transit 2A Rocket - Pass Details

Date: 05 November 2020
Orbit: 588 x 914 km, 66.7° (Epoch: 27 November)

Event Time Altitude Azimuth Distance (km) Brightness Sun altitude
Rises 18:47:54 0° 330° (NNW) 3,328 8.2 15.2°
Reaches altitude 10° 18:50:51 10° 343° (NNW) 2,334 7.3 14.8°
Maximum altitude 18:55:13 25° 38° (NE) 1,449 6.0 14.3°
Drops below altitude 10° 18:59:16 10° 94° (E) 2,145 7.0 13.8°
Sets 19:01:51 0° 108° (ESE) 3,002 7.8 13.4°
